Weather History for Hutchinson, KS

Change the Weather History Date:

Monday, November 19, 2012

  Actual Average Record
Temperature  
Mean Temperature 54 °F -  
Max Temperature 72 °F 52 °F 81 °F (2007)
Min Temperature 37 °F 29 °F 18 °F (2001)
Degree Days  
Heating Degree Days 10    
Growing Degree Days 4 (Base 50)    
Moisture  
Dew Point 40 °F    
Average Humidity 67    
Maximum Humidity 100    
Minimum Humidity 30    
Precipitation  
Precipitation 0.00 in - - ()
Sea Level Pressure  
Sea Level Pressure 30.10 in    
Wind  
Wind Speed 6 mph (WSW)    
Max Wind Speed 13 mph    
Max Gust Speed -    
Visibility 9 miles    
Events      
Averages and records for this station are not official NWS values.
T = Trace of Precipitation, MM = Missing Value Source: NWS Daily Summary

Daily Weather History Graph

Daily Weather History Graph

Search for Another Location

Airport:

Trip Planner

Search our weather history database for the weather conditions in past years. The results will help you decide how hot, cold, wet, or windy it might be!

Date:

Astronomy

Nov. 19, 2012 Rise Set
Actual Time 7:17 AM CST 5:16 PM CST
Civil Twilight 6:48 AM CST 5:44 PM CST
Nautical Twilight 6:16 AM CST 6:16 PM CST
Astronomical Twilight 5:45 AM CST 6:48 PM CST
Moon 12:22 PM CST (11/19) 11:42 PM CST (11/19)
Length of Visible Light 10h 56m
Length of Day
9h 59m
Waxing Crescent, 41% of the Moon is Illuminated
Nov 19
Waxing Crescent
Nov 20
First Quarter
Nov 28
Full
Dec 6
Last Quarter
Dec 13
New

Hourly Weather History & Observations

Time (CST) Temp. Windchill Dew Point Humidity Pressure Visibility Wind Dir Wind Speed Gust Speed Precip Events Conditions
12:52 AM 51.1 °F - 39.9 °F 66% 30.03 in 10.0 mi South 12.7 mph - N/A   Clear
1:52 AM 48.9 °F - 41.0 °F 74% 30.03 in 10.0 mi South 11.5 mph - N/A   Clear
2:52 AM 48.0 °F - 41.0 °F 77% 30.04 in 10.0 mi South 10.4 mph - N/A   Clear
4:52 AM 46.0 °F 42.5 °F 39.9 °F 79% 30.05 in 10.0 mi South 6.9 mph - N/A   Clear
5:52 AM 43.0 °F 39.5 °F 39.0 °F 86% 30.06 in 9.0 mi SSE 5.8 mph - N/A   Clear
6:52 AM 39.0 °F 36.8 °F 37.0 °F 93% 30.08 in 6.0 mi SSE 3.5 mph - N/A   Clear
7:42 AM 37.4 °F - 37.4 °F 100% 30.11 in 1.8 mi Calm Calm - N/A   Clear
7:52 AM 39.0 °F - 37.9 °F 96% 30.10 in 7.0 mi Calm Calm - N/A   Clear
8:52 AM 46.9 °F - 42.1 °F 83% 30.12 in 8.0 mi SSW 5.8 mph - N/A   Clear
9:52 AM 53.1 °F - 42.1 °F 66% 30.11 in 10.0 mi SW 6.9 mph - N/A   Clear
10:52 AM 55.9 °F - 44.1 °F 64% 30.12 in 10.0 mi SW 4.6 mph - N/A   Clear
11:52 AM 60.1 °F - 45.0 °F 57% 30.11 in 10.0 mi West 3.5 mph - N/A   Clear
12:52 PM 64.9 °F - 43.0 °F 45% 30.08 in 10.0 mi Calm Calm - N/A   Clear
1:52 PM 68.0 °F - 43.0 °F 40% 30.05 in 10.0 mi SW 3.5 mph - N/A   Clear
2:52 PM 71.1 °F - 42.1 °F 35% 30.06 in 10.0 mi WNW 5.8 mph - N/A   Clear
3:52 PM 72.0 °F - 39.0 °F 30% 30.06 in 10.0 mi NW 5.8 mph - N/A   Clear
4:52 PM 66.0 °F - 39.0 °F 37% 30.08 in 10.0 mi West 3.5 mph - N/A   Clear
5:52 PM 53.1 °F - 37.9 °F 57% 30.11 in 10.0 mi NNW 3.5 mph - N/A   Clear
6:52 PM 46.9 °F - 37.0 °F 68% 30.14 in 10.0 mi Calm Calm - N/A   Clear
7:52 PM 45.0 °F - 36.0 °F 71% 30.15 in 10.0 mi Calm Calm - N/A   Clear
8:52 PM 44.1 °F - 37.0 °F 76% 30.15 in 10.0 mi Calm Calm - N/A   Clear
9:52 PM 46.0 °F 43.9 °F 37.0 °F 71% 30.15 in 10.0 mi NW 4.6 mph - N/A   Clear
10:52 PM 46.0 °F 43.9 °F 36.0 °F 68% 30.15 in 10.0 mi WNW 4.6 mph - N/A   Clear
11:52 PM 43.0 °F 40.3 °F 35.1 °F 74% 30.16 in 10.0 mi WNW 4.6 mph - N/A   Clear